This demonstration page uses our WeatherBlox Daily Observations layout. Learn more.

Left ArrowRight Arrow

39.12711, -84.51439

Hourly Observations for July 14, 2018

Temp ( °F °C ) Dew Point ( °F °C ) Humidity (%) Winds ( mph kmh ) Pressure ( in mb ) Visibility ( mi km ) Precip ( " mm )
12:53 am 00:53 Clear 69 20.6 67 19.4 93 93 Calm 30.11 1020 9 14 0.00 0.00
1:53 am 01:53 Clear 68 20 68 20 100 100 Calm 30.09 1019 7 11 0.00 0.00
2:53 am 02:53 Clear with Mist and Fog 67 19.4 67 19.4 100 100 Calm 30.07 1018 6 10 0.00 0.00
3:53 am 03:53 Clear with Mist and Fog 67 19.4 67 19.4 100 100 Calm 30.06 1018 5 8 0.00 0.00
4:53 am 04:53 Clear with Mist and Fog 66 18.9 66 18.9 100 100 Calm 30.07 1018 6 10 0.00 0.00
5:53 am 05:53 Clear with Mist and Fog 65 18.3 65 18.3 100 100 Calm 30.08 1019 4 6 0.00 0.00
6:19 am 06:19 Clear with Mist and Fog 65 18.3 65 18.3 100 100 Calm 30.06 1018 2 3 0.00 0.00
6:42 am 06:42 Sunny with Mist and Fog 66 18.9 66 18.9 100 100 Calm 30.06 1018 3 5 0.00 0.00
6:53 am 06:53 Sunny 66 18.9 66 18.9 100 100 Calm 30.08 1019 7 11 0.00 0.00
7:53 am 07:53 Sunny 70 21.1 68 20 93 93 Calm 30.09 1019 7 11 0.00 0.00
8:53 am 08:53 Sunny 74 23.3 70 21.1 88 88 Calm 30.10 1019 7 11 0.00 0.00
9:53 am 09:53 Sunny 79 26.1 71 21.7 77 77 Calm 30.09 1019 8 13 0.00 0.00
10:53 am 10:53 Sunny 83 28.3 72 22.2 70 70 Calm 30.09 1019 9 14 0.00 0.00
11:53 am 11:53 Sunny 87 30.6 69 20.6 55 55 VRB 6 9 30.08 1019 10 16 0.00 0.00
12:53 pm 12:53 Mostly Sunny 89 31.7 68 20 50 50 SE 5 7 30.09 1019 10 16 0.00 0.00
1:53 pm 13:53 Partly Cloudy 90 32.2 68 20 48 48 VRB 6 9 30.09 1019 10 16 0.00 0.00
2:53 pm 14:53 Partly Cloudy 91 32.8 67 19.4 45 45 SSW 5 7 30.05 1018 10 16 0.00 0.00
3:53 pm 15:53 Mostly Sunny 91 32.8 67 19.4 45 45 Calm 30.04 1017 10 16 0.00 0.00
4:53 pm 16:53 Mostly Sunny 91 32.8 67 19.4 45 45 Calm 30.02 1017 10 16 0.00 0.00
5:53 pm 17:53 Mostly Sunny 91 32.8 68 20 47 47 S 6 9 30.01 1016 10 16 0.00 0.00
6:53 pm 18:53 Sunny 89 31.7 68 20 50 50 SSE 7 11 29.98 1015 10 16 0.00 0.00
7:53 pm 19:53 Sunny 84 28.9 69 20.6 61 61 S 6 9 29.97 1015 10 16 0.00 0.00
8:53 pm 20:53 Sunny 80 26.7 70 21.1 71 71 S 3 6 30.00 1016 10 16 0.00 0.00
9:53 pm 21:53 Clear 77 25 69 20.6 77 77 Calm 30.02 1017 10 16 0.00 0.00
10:53 pm 22:53 Clear 76 24.4 69 20.6 79 79 Calm 30.02 1017 10 16 0.00 0.00
11:53 pm 23:53 Clear 74 23.3 69 20.6 85 85 Calm 30.02 1017 10 16 0.00 0.00

Powered by AerisWeather